GFSGL_prec_cloud_003.txt.gz
Cloud_Cover
0 0 0 0 20 7 5 5 5 3 0 0 0 3 5 5 74 99 100 92 85 86 100 100 100 100 100 94 100 100 100 100 100 100 100 100 100 100 100 100 100 100 100
0 0 0 11 6 61 6 5 5 5 9 44 3 7 39 47 99 100 78 100 100 100 100 100 100 100 100 98 93 100 100 100 100 100 100 100 100 100 100 100 100 100 100
0 0 1 0 6 84 6 5 2 5 36 97 100 57 86 100 96 98 100 100 100 100 100 100 100 100 100 100 100 100 100 100 100 100 100 100 100 100 100 100 100 100 100
0 0 0 8 1 72 7 5 5 5 5 18 90 100 48 100 86 100 100 100 100 100 100 100 100 100 100 100 100 96 92 100 100 100 100 100 100 100 100 100 100 100 100
0 0 4 0 1 23 30 10 5 15 76 94 45 54 51 87 50 87 100 100 100 94 99 100 98 100 84 100 100 100 100 100 100 100 100 100 100 100 100 100 100 100 100
0 0 8 7 5 5 52 18 5 10 66 94 100 100 12 11 100 87 100 100 100 100 100 100 100 96 100 100 100 100 100 100 100 100 100 100 100 100 100 100 100 100 100
0 0 1 5 4 5 4 7 14 29 97 97 82 100 92 32 100 100 100 100 100 48 67 78 100 100 87 99 100 100 100 100 100 100 100 100 100 100 100 100 100 100 100
0 0 2 4 4 5 4 5 5 10 71 97 100 80 57 12 100 100 100 100 100 100 100 100 76 100 100 100 100 100 100 100 100 100 100 100 100 100 100 100 100 100 100
0 0 3 1 4 0 4 4 5 72 29 95 95 100 96 65 100 100 79 100 100 100 100 100 97 98 100 98 100 100 100 100 100 100 100 100 100 100 100 99 88 96 100
0 0 1 0 5 0 1 4 5 92 100 100 41 68 100 68 100 100 100 100 100 100 100 100 100 100 100 100 100 100 100 100 100 100 100 100 100 100 100 100 100 100 100
0 0 0 0 2 1 0 0 0 53 91 100 100 96 95 100 100 100 100 100 100 100 100 100 100 100 100 100 100 100 100 100 100 100 100 100 100 100 100 100 100 100 100
0 0 0 0 0 0 0 0 0 4 53 45 62 13 92 100 100 100 100 100 100 100 100 100 100 100 100 100 100 100 100 98 99 100 100 100 99 58 100 100 100 100 100
0 0 0 0 0 0 0 0 0 0 6 48 52 52 87 100 100 100 100 100 98 100 100 100 100 100 100 99 100 99 100 100 100 100 16 20 54 95 79 41 91 22 30
0 0 0 0 0 0 0 0 0 0 0 0 8 31 8 6 28 12 85 100 100 100 100 89 27 88 77 93 100 100 68 13 5 10 78 100 83 77 66 56 30 59 100
0 0 0 0 0 0 0 0 0 0 0 0 0 0 10 13 7 32 82 80 68 36 50 80 93 89 44 15 26 46 75 71 77 87 63 42 44 92 100 100 98 52 4
0 0 0 0 0 0 0 0 24 0 0 0 0 0 0 0 0 0 2 2 5 5 5 11 13 12 22 68 97 88 100 100 100 100 100 100 70 22 4 2 5 9 16
0 0 0 0 0 0 0 0 0 0 0 0 0 0 0 0 0 0 0 0 0 1 0 0 1 2 7 20 41 57 58 46 8 5 5 5 5 5 5 11 24 87 100
1 0 0 0 0 0 0 0 0 0 0 0 42 10 10 0 0 0 0 0 1 11 0 0 0 0 1 3 1 2 5 5 5 5 5 5 5 22 66 40 92 100 100
5 2 2 0 0 0 0 0 0 0 0 0 0 11 2 2 0 0 0 0 0 0 0 0 0 4 3 5 5 5 64 62 50 13 10 17 84 100 100 100 57 100 100
5 5 5 4 3 4 0 0 0 0 0 0 0 0 0 0 0 0 0 0 0 0 1 5 5 5 5 5 6 5 6 12 22 45 69 32 90 100 93 98 100 100 100
2 0 5 4 5 3 5 0 0 0 0 0 0 0 0 0 0 0 0 0 0 0 0 0 0 2 5 4 5 5 5 5 18 6 13 100 95 74 96 100 100 100 100
5 28 6 4 5 5 2 4 0 0 0 0 0 0 0 0 0 0 0 0 0 0 0 0 0 0 0 3 6 73 62 64 91 100 93 98 100 100 94 87 100 100 100
5 70 96 28 6 5 5 5 5 5 2 3 5 0 2 2 2 2 5 5 5 5 4 3 5 5 5 5 5 5 5 32 59 52 42 90 97 86 50 81 96 98 100
44 61 31 91 98 19 20 8 5 42 30 5 5 8 5 5 2 5 97 7 5 5 5 4 5 5 5 5 5 5 9 9 9 78 98 78 100 100 100 98 100 100 100
37 57 9 97 100 81 35 88 61 87 47 12 5 5 6 28 5 5 7 5 2 0 1 4 5 5 5 5 4 5 6 24 16 83 66 81 96 100 100 100 100 100 100
93 57 72 50 100 100 86 7 63 66 65 100 100 82 62 19 43 88 89 36 34 4 5 5 3 5 28 20 7 5 6 69 100 100 78 90 73 99 100 100 100 100 100

GFSGL_prec_cloud_009.txt.gz
Cloud_Cover
0 58 100 100 100 91 19 55 10 9 4 22 52 94 89 99 57 100 99 64 100 99 84 28 34 100 100 100 97 100 100 98 100 100 100 100 100 100 100 100 100 100 100
1 91 79 100 69 26 11 100 3 5 2 61 77 100 99 100 100 100 88 100 97 82 50 6 100 100 100 100 100 100 100 100 100 100 100 100 100 100 100 100 100 100 100
4 90 99 96 83 8 51 100 4 5 16 81 99 66 100 100 100 100 100 91 100 58 90 100 100 100 100 100 100 100 100 100 100 100 100 100 100 100 100 100 100 100 100
1 66 66 92 100 6 98 64 21 1 10 100 93 95 100 99 100 100 100 95 100 100 100 100 100 100 100 100 100 100 100 100 100 100 100 100 100 100 100 100 100 100 100
0 26 47 36 45 55 64 91 83 30 100 100 100 100 95 100 100 95 100 100 100 100 100 100 100 100 100 100 100 100 100 100 100 100 100 100 100 100 100 100 100 100 100
0 0 11 1 0 26 99 100 100 100 100 100 100 100 92 100 100 100 100 100 100 100 100 100 100 100 100 100 100 100 100 100 100 100 100 100 100 100 100 100 100 100 100
0 0 0 1 8 7 96 100 99 100 100 100 87 94 86 100 100 100 100 100 100 100 100 100 100 100 100 100 100 100 100 100 100 100 100 100 100 100 100 100 100 100 100
5 4 0 26 76 100 100 100 57 88 99 18 71 16 48 31 100 100 100 100 100 100 100 100 100 100 100 100 100 100 100 100 100 100 100 100 100 100 100 100 100 100 100
1 24 2 56 84 98 100 44 36 55 94 93 68 84 54 5 100 100 100 100 97 100 100 100 85 100 100 100 100 100 100 100 100 100 100 100 100 100 100 100 100 100 98
0 2 4 49 40 19 5 19 33 8 28 92 90 64 18 8 100 100 92 100 100 96 100 100 100 100 100 100 100 100 100 100 100 100 100 100 100 81 98 100 100 100 98
0 4 7 7 4 33 34 71 6 53 63 96 27 84 90 27 92 100 100 89 69 100 100 96 100 100 100 100 100 100 100 100 100 100 100 100 100 100 100 100 100 100 100
0 0 5 2 9 6 5 11 6 41 20 72 88 62 47 39 97 100 100 90 100 100 100 11 62 66 100 99 83 79 74 100 100 100 100 100 100 100 100 98 38 100 87
0 0 0 1 0 0 0 4 5 5 82 63 98 73 49 98 99 100 100 100 35 92 100 100 98 57 98 100 100 99 100 100 100 100 100 34 52 59 95 5 2 4 7
0 0 0 0 0 0 0 0 0 1 17 80 94 100 90 96 23 93 100 11 100 100 98 96 64 35 89 95 100 100 100 100 97 97 94 70 5 5 5 5 5 5 5
0 0 0 0 0 0 0 0 0 0 0 3 4 3 52 60 22 33 7 70 100 100 100 100 100 100 30 99 100 18 10 18 90 77 6 22 88 100 62 19 48 100 88
0 0 0 0 0 0 0 0 61 0 0 0 0 0 9 6 0 35 99 88 15 33 75 100 99 54 5 3 8 8 54 54 85 100 100 92 69 27 31 21 2 0 4
0 0 0 0 0 0 0 0 0 33 3 0 0 0 0 0 0 0 1 2 2 54 12 12 20 29 26 6 5 6 5 5 4 1 5 5 0 0 5 5 5 5 5
0 4 0 0 0 0 0 0 0 0 0 0 40 0 4 0 0 0 0 18 8 27 4 5 4 4 4 2 2 0 0 0 0 0 3 5 7 5 5 6 66 61 35
5 5 5 5 3 0 0 0 0 0 0 0 0 33 18 2 0 1 11 0 0 0 0 0 0 0 0 0 0 0 0 3 4 2 5 6 14 5 5 5 5 31 99
5 5 5 5 5 1 0 0 0 0 0 0 0 0 0 0 0 0 0 0 0 0 0 0 0 0 0 0 0 0 0 0 5 14 10 5 5 5 5 5 5 5 53
5 5 5 5 5 3 0 0 0 0 0 0 0 0 0 0 0 0 0 0 0 0 0 0 0 0 0 0 0 5 2 5 5 5 5 5 79 95 24 7 31 5 99
5 5 5 5 5 3 5 0 0 0 0 0 0 1 0 0 0 0 0 0 0 0 0 0 0 0 0 4 5 5 1 5 5 31 91 52 73 100 60 93 48 27 12
5 5 5 5 5 5 5 5 4 5 5 4 3 5 5 18 10 7 5 1 0 0 0 0 0 0 0 3 5 43 58 21 52 91 97 27 46 39 24 15 6 32 87
0 5 5 5 5 5 5 5 5 5 5 5 5 10 5 22 42 77 76 79 7 4 5 5 5 4 5 2 5 5 12 71 36 80 66 98 100 49 5 5 7 68 87
5 5 5 9 98 53 19 40 15 5 5 13 58 69 11 6 25 86 38 10 5 5 5 17 15 5 6 8 5 5 12 39 18 7 28 33 25 5 5 5 22 95 96
5 5 5 5 5 20 27 44 5 5 5 13 23 56 36 36 16 5 5 29 64 54 100 98 54 96 74 72 5 5 8 38 76 62 10 5 5 9 15 56 47 100 100

GFSGL_prec_cloud_015.txt.gz
Cloud_Cover
0 0 0 0 0 0 0 0 0 0 11 5 63 100 100 100 41 100 100 88 100 100 100 100 100 100 100 100 100 100 100 100 100 100 100 100 100 100 100 100 100 100 100
0 0 0 0 0 2 0 96 0 0 3 66 100 62 100 100 100 100 100 38 100 100 100 100 100 100 86 100 100 96 100 100 100 100 100 100 100 100 100 100 100 100 100
8 92 80 30 99 0 0 98 2 0 0 82 88 50 100 100 100 100 100 100 100 100 100 100 100 100 100 100 100 100 100 100 100 100 100 100 100 100 100 100 100 100 100
100 100 90 55 97 2 0 100 0 0 0 76 88 92 100 100 95 100 100 100 100 100 100 100 100 100 100 100 100 100 100 100 100 100 100 100 100 100 100 100 100 100 100
100 100 100 33 100 9 98 27 0 0 96 100 96 96 100 98 97 97 100 100 100 100 100 93 100 100 100 100 100 100 100 100 100 100 100 100 100 100 100 100 100 100 100
100 93 39 0 97 100 100 100 100 55 100 100 81 90 91 100 100 100 100 100 100 99 100 100 100 100 100 100 100 100 100 100 100 100 100 100 100 100 100 100 100 100 100
100 23 0 0 48 72 100 84 31 84 100 100 70 97 100 100 100 100 100 100 100 35 80 100 100 100 100 100 100 100 100 100 100 100 100 100 100 100 100 100 100 100 100
90 0 0 17 48 99 100 95 94 74 94 77 36 14 100 100 100 100 100 94 100 100 100 100 100 100 100 100 100 100 100 100 100 100 100 100 100 100 100 100 100 100 100
18 0 0 23 18 55 98 80 100 98 88 82 31 13 98 100 100 100 100 100 100 100 100 100 100 100 100 100 100 100 100 100 100 100 100 100 100 100 100 100 100 100 100
0 0 98 27 20 5 5 5 100 61 93 15 54 6 52 100 100 100 100 100 100 100 100 100 100 100 100 100 100 100 100 100 100 100 100 100 100 100 100 100 100 72 94
0 3 85 52 0 5 5 5 100 100 99 100 26 5 47 100 100 100 100 100 100 65 100 100 100 100 100 100 100 100 100 100 100 100 100 100 100 100 100 79 100 86 65
0 1 82 2 0 4 5 30 95 100 39 69 35 70 17 59 98 100 100 100 100 93 100 100 100 100 100 100 100 100 100 100 99 100 100 98 100 100 100 100 100 100 100
0 0 0 0 0 0 5 0 35 37 39 8 26 99 58 60 91 100 100 100 100 100 100 100 100 100 100 100 100 100 100 100 100 100 100 100 100 100 74 100 100 100 95
0 0 0 0 0 0 1 0 0 8 80 80 5 11 36 52 68 94 98 100 100 100 100 100 100 100 100 90 100 100 100 100 88 17 59 12 61 47 46 5 5 5 4
0 0 0 0 0 0 0 6 5 1 52 80 99 85 100 37 36 77 36 47 56 88 69 15 46 42 36 44 47 77 36 5 22 12 10 13 5 6 16 6 0 2 5
0 0 0 0 0 0 0 0 2 1 17 13 22 96 25 21 22 99 94 76 92 86 54 40 5 6 20 48 24 92 97 10 16 5 5 5 3 1 2 5 5 5 5
0 0 0 0 0 0 0 0 0 0 0 0 0 0 4 4 8 92 45 100 78 7 55 99 16 5 5 5 5 5 3 4 0 4 1 0 0 10 31 5 5 5 58
0 0 0 0 0 0 0 0 0 0 0 0 4 0 0 0 0 0 14 59 21 33 10 98 91 20 3 3 2 0 0 0 18 6 2 0 3 6 23 11 5 9 23
0 0 0 0 0 0 0 0 0 0 0 0 0 0 51 54 16 12 5 0 0 3 2 2 0 0 0 0 0 0 0 0 5 15 2 5 6 86 72 5 10 5 73
0 0 0 0 0 0 0 0 0 0 0 0 0 0 4 5 0 0 1 0 0 0 0 0 0 0 0 0 0 0 0 0 0 3 5 5 16 70 18 66 33 86 7
0 0 0 0 0 0 0 0 0 0 0 0 0 0 0 0 0 0 0 0 0 0 0 0 0 0 0 0 0 0 0 0 0 5 5 5 5 15 11 62 32 24 97
5 0 0 0 0 0 0 0 0 0 0 0 0 0 0 0 1 0 0 0 0 0 0 0 0 0 2 4 2 2 3 5 5 4 4 5 19 77 83 82 79 100 90
90 7 0 0 0 0 0 0 0 2 0 0 0 0 0 0 0 0 0 0 0 0 0 0 2 5 5 11 5 5 5 5 5 8 28 27 7 36 98 98 95 100 100
100 55 5 5 4 0 0 1 4 5 1 4 0 1 0 0 0 0 0 4 5 4 5 5 24 10 20 10 27 45 5 7 6 51 85 100 100 100 100 100 100 100 95
100 100 100 31 5 5 5 5 4 1 4 4 5 0 5 5 1 0 0 0 2 5 5 5 5 5 5 7 46 100 100 100 100 100 100 100 100 100 100 100 100 100 100
6 13 12 93 94 21 60 93 32 5 23 6 5 5 5 5 3 5 5 3 0 3 4 4 5 5 0 24 41 29 26 61 97 14 19 86 99 84 88 98 100 100 100

GFSGL_prec_cloud_021.txt.gz
Cloud_Cover
24 0 0 0 0 0 0 0 0 0 0 0 0 3 5 92 5 98 92 100 100 74 100 100 100 87 75 79 100 13 12 47 99 100 100 100 100 100 100 100 100 100 100
0 0 0 0 0 0 0 0 0 0 0 0 0 4 97 23 99 100 100 100 99 100 82 94 96 99 99 98 68 92 85 100 100 100 100 100 100 100 100 100 100 100 100
0 0 0 0 0 0 0 0 5 0 0 0 0 11 48 7 100 100 100 76 97 77 100 100 97 100 100 100 100 100 100 97 100 100 100 100 100 100 100 100 100 100 100
0 0 0 0 44 0 0 0 0 0 0 0 12 78 27 6 87 100 96 100 98 98 89 100 100 98 100 100 100 100 100 100 100 100 100 100 100 100 100 100 100 100 100
0 0 0 20 23 0 0 0 0 0 0 60 96 21 35 87 69 97 85 100 87 100 100 100 100 100 80 92 78 100 100 100 100 100 100 100 100 100 100 100 100 100 100
0 0 7 67 0 1 3 0 0 0 18 100 100 100 100 100 100 100 100 100 100 100 100 100 100 100 100 100 93 71 100 100 100 100 100 100 100 100 100 100 100 100 100
8 23 100 7 0 33 2 5 2 10 100 100 64 100 100 96 100 100 100 100 100 100 100 100 100 100 100 100 100 100 100 100 100 100 100 100 100 100 100 100 100 100 100
90 12 44 0 0 100 100 5 5 100 100 100 100 100 100 76 100 100 100 100 100 100 100 100 100 100 100 100 100 100 100 100 100 100 100 100 100 100 100 100 100 100 100
0 45 0 0 0 0 5 13 5 5 58 92 100 100 100 100 100 100 100 100 100 100 100 100 100 100 100 100 100 100 100 100 100 100 100 100 100 100 100 100 100 100 100
2 1 0 0 0 4 5 5 5 5 4 74 100 100 95 100 100 100 100 100 100 100 100 100 100 100 100 100 94 100 100 100 100 100 100 100 100 100 100 58 97 100 100
20 0 0 1 5 5 5 5 5 5 12 80 100 97 100 99 100 100 100 100 100 100 100 100 100 100 100 100 100 100 100 100 100 100 100 100 100 100 100 100 55 65 65
0 0 0 56 0 5 9 8 5 5 20 74 100 100 80 71 100 100 100 100 100 100 100 100 100 100 100 90 51 98 43 100 98 81 100 99 88 90 100 96 82 100 81
0 0 0 97 0 0 5 2 15 16 29 59 100 100 82 92 100 100 100 100 95 100 100 93 100 100 100 100 100 80 45 86 97 93 95 99 99 100 100 64 98 10 5
0 0 0 100 0 0 5 0 10 27 35 37 98 100 99 100 100 100 97 99 100 100 100 100 99 100 100 100 96 100 95 85 98 100 90 68 68 28 51 76 34 6 4
0 0 0 0 1 0 2 14 6 5 15 30 100 100 96 100 100 100 100 87 89 100 100 100 100 100 100 100 95 100 100 100 100 100 94 69 41 52 46 6 5 5 5
0 0 0 0 0 0 1 0 6 22 18 91 64 21 16 100 100 100 100 100 100 100 100 100 100 100 100 100 100 98 83 76 33 65 41 44 7 5 8 12 5 5 5
5 0 0 0 0 0 0 0 0 4 13 44 96 99 94 42 100 100 100 100 100 100 77 100 100 100 100 100 100 99 60 78 100 76 97 98 5 5 96 12 44 6 5
5 9 0 0 0 0 0 0 0 0 0 5 77 94 99 94 100 100 87 93 76 56 56 80 92 100 94 100 100 93 33 22 12 7 6 5 12 3 3 5 8 5 6
5 5 4 0 0 0 0 0 0 0 0 0 4 14 100 100 100 100 96 84 100 98 82 100 99 76 75 94 81 48 2 6 3 5 2 2 0 2 5 5 33 67 29
56 10 5 3 0 0 0 0 0 0 0 0 0 0 98 25 42 63 78 4 4 5 5 13 56 96 100 46 3 0 0 15 1 0 0 0 0 4 8 35 7 19 84
30 61 37 5 5 0 0 0 0 0 0 0 0 9 68 0 0 0 11 0 0 0 0 0 0 2 0 0 0 0 0 0 0 0 0 0 0 5 5 21 18 5 22
53 16 16 32 10 5 5 5 5 2 3 0 0 10 55 6 0 0 0 0 0 0 0 0 0 0 0 0 0 0 0 0 0 0 0 2 4 5 5 5 30 62 91
100 91 51 29 19 5 5 5 4 3 3 0 0 2 15 2 0 4 1 0 0 0 0 0 0 0 1 3 3 2 0 2 5 5 8 12 43 44 30 35 82 15 50
100 100 100 98 68 61 6 5 5 5 5 5 5 4 5 5 4 5 4 0 0 1 4 3 2 5 5 5 5 5 5 5 5 5 5 5 5 6 7 18 82 99 100
100 100 100 100 100 76 68 56 18 5 5 5 5 5 5 5 5 5 5 5 5 5 5 5 5 5 5 5 5 5 5 66 88 100 100 100 99 99 96 100 86 100 100
100 100 100 100 100 100 100 100 100 56 18 58 89 90 52 6 5 5 5 5 5 5 7 11 13 6 5 5 5 5 22 33 52 23 44 91 99 100 100 96 100 100 100

GFSGL_prec_cloud_024.txt.gz
Cloud_Cover
0 0 0 0 0 0 0 0 2 0 0 0 0 0 0 11 39 52 58 96 37 61 84 70 59 29 34 91 66 69 70 87 96 100 99 100 100 100 100 100 100 100 100
4 0 0 0 0 0 0 0 0 0 0 0 0 0 0 38 5 54 94 100 53 66 99 92 71 76 100 100 99 54 70 90 99 98 100 100 100 100 100 100 100 100 100
0 0 0 0 0 0 0 0 0 0 1 0 0 0 8 5 43 96 100 95 76 23 61 99 98 98 100 100 100 95 37 96 98 98 100 100 100 100 100 100 100 100 100
0 0 0 0 0 0 0 0 0 0 0 0 3 1 14 6 81 100 56 100 100 81 86 48 40 52 100 100 100 98 92 98 100 100 100 100 100 100 100 100 100 100 100
0 0 0 0 0 0 0 0 0 0 0 0 25 12 46 31 74 100 97 99 100 100 83 88 60 89 100 100 100 100 99 100 100 100 100 100 100 100 100 100 100 100 100
0 0 0 0 0 0 0 0 0 0 1 95 83 40 66 81 100 100 100 100 100 100 100 100 100 100 100 100 100 100 100 100 100 100 100 100 100 100 100 100 100 100 100
0 0 50 21 0 34 1 2 5 5 89 100 59 96 12 100 100 100 100 100 100 100 100 100 100 100 97 100 100 100 100 90 100 100 100 100 100 100 100 100 100 100 100
0 0 66 18 0 15 4 14 5 57 100 100 100 8 74 100 100 100 100 100 100 100 100 100 100 100 98 98 100 100 100 100 98 100 100 91 98 100 100 100 100 100 100
0 41 4 0 1 53 51 23 5 97 100 100 89 90 78 100 100 100 100 100 100 100 100 100 99 99 100 100 100 100 100 100 100 100 100 100 100 100 100 100 100 100 100
0 7 0 0 0 5 5 5 5 25 18 100 56 100 100 100 100 100 100 100 100 100 100 100 100 100 100 100 100 100 100 100 100 100 100 100 100 100 100 100 100 100 100
99 0 0 3 5 5 6 38 5 5 100 100 51 97 99 100 100 100 100 100 100 100 100 100 100 100 100 100 100 98 93 97 100 100 100 100 100 100 100 100 100 100 81
100 0 24 4 5 5 5 13 36 27 81 17 100 53 100 100 100 100 100 100 100 100 100 100 100 100 100 100 100 100 100 100 100 100 100 100 100 100 100 100 100 100 70
18 0 86 18 5 4 5 5 7 7 72 81 73 100 100 100 100 100 100 100 100 98 97 100 100 100 100 100 96 86 100 100 96 54 72 100 100 100 98 100 18 5 5
0 0 51 34 12 4 0 3 5 20 28 100 100 99 82 100 100 100 100 100 100 100 100 100 100 100 100 100 96 20 23 68 99 100 100 100 100 100 94 77 10 5 5
0 0 17 6 0 5 6 9 5 15 23 100 100 100 66 100 100 100 100 100 100 99 100 100 100 100 100 100 70 33 96 98 100 100 95 69 18 21 8 33 22 5 0
0 0 0 0 0 0 4 5 4 38 100 98 100 100 92 100 100 100 100 100 100 100 100 100 100 98 100 100 100 100 100 100 100 72 38 39 54 6 39 54 5 5 5
0 0 0 0 0 0 1 5 5 4 53 100 100 100 54 100 100 100 100 100 100 97 100 100 100 100 100 100 100 93 23 43 5 40 36 70 100 5 13 4 0 5 5
0 11 0 0 0 0 0 0 4 5 5 9 89 100 100 100 100 100 100 100 100 100 100 100 100 100 100 100 82 99 39 38 48 82 33 3 78 5 2 0 0 11 5
0 0 0 0 0 0 0 0 0 0 5 5 33 76 100 100 100 100 100 24 93 96 46 37 42 99 100 99 97 100 68 16 4 2 2 3 3 5 1 0 3 74 51
5 5 5 3 0 0 0 0 0 0 0 0 0 1 100 99 100 100 74 5 16 57 12 6 97 100 44 78 100 100 100 52 21 8 0 0 0 0 2 5 5 26 49
5 5 5 5 5 3 0 0 0 0 0 0 0 16 100 0 0 18 98 0 0 0 2 3 2 4 3 20 35 58 57 39 22 8 0 0 0 0 0 5 5 44 42
97 27 12 14 5 5 3 0 0 0 0 0 0 13 100 7 0 0 0 0 0 0 0 0 0 0 0 0 0 0 0 0 0 0 0 3 5 5 4 5 5 7 36
100 100 92 89 73 13 5 5 22 10 5 4 1 0 8 0 0 0 0 0 0 0 0 0 0 0 0 0 0 0 0 0 1 4 5 5 5 5 5 4 5 5 6
100 100 100 100 100 99 74 38 11 16 35 21 5 5 5 3 0 0 0 2 5 4 5 3 2 4 0 2 3 4 0 0 0 1 5 5 1 4 0 0 0 8 76
100 100 100 100 100 100 100 100 100 90 67 64 53 26 5 5 5 5 5 5 5 5 5 4 5 5 5 5 5 5 5 5 5 9 5 5 6 5 11 19 5 26 6
100 100 100 100 100 100 100 100 100 100 100 98 18 15 5 5 5 9 5 5 5 5 5 5 5 4 5 5 5 5 5 5 5 5 5 5 6 6 5 5 17 36 75

GFSGL_prec_cloud_027.txt.gz
Cloud_Cover
1 5 4 0 0 0 0 0 0 0 0 0 0 0 0 0 2 5 48 85 91 58 65 100 76 40 11 100 100 94 90 100 100 100 100 100 100 99 94 100 100 100 100
4 5 5 0 0 0 0 0 0 0 0 0 0 0 0 0 5 33 55 16 100 93 81 100 98 86 100 70 62 91 100 100 100 100 100 100 100 100 100 100 100 100 100
5 0 0 0 0 0 0 0 0 0 0 0 0 0 0 5 5 33 94 99 100 100 99 100 100 100 94 100 88 100 56 28 73 100 100 100 100 100 100 100 100 100 100
0 0 0 0 0 0 0 0 0 0 0 0 0 0 4 5 16 31 82 100 100 100 100 100 93 40 100 100 95 100 80 86 100 100 100 100 100 100 100 100 100 100 100
0 0 0 0 0 0 0 0 0 0 0 0 2 1 5 6 93 93 100 100 100 100 100 89 70 47 100 97 100 97 100 100 99 100 100 100 100 100 100 100 100 100 100
4 0 0 0 0 0 0 0 0 0 0 5 0 3 6 57 100 100 100 100 100 100 100 100 100 100 94 100 100 100 99 79 86 100 100 100 100 100 100 100 100 100 100
0 0 11 6 0 98 3 5 5 1 27 100 4 79 14 98 100 100 100 100 100 100 100 96 100 98 99 99 98 100 100 98 92 97 100 100 100 100 100 100 99 92 100
0 0 88 0 0 2 1 4 5 11 100 100 91 50 92 73 100 100 100 100 100 100 100 100 82 74 100 100 100 100 93 100 91 100 100 100 100 100 100 100 100 100 100
0 9 0 0 0 0 0 0 3 98 100 98 22 100 99 98 100 100 100 100 100 100 100 100 99 100 80 59 100 100 100 100 100 100 98 98 100 99 96 100 100 100 100
0 0 0 0 0 5 5 6 5 5 92 39 56 85 89 97 100 100 100 100 100 100 100 100 77 100 100 98 99 100 100 100 100 100 100 100 100 100 100 100 100 91 100
0 0 0 3 5 16 37 39 5 41 72 21 100 90 100 100 100 100 100 100 100 100 100 100 100 100 100 100 97 100 100 100 100 100 100 100 100 100 100 100 100 100 100
0 0 0 3 2 5 5 6 5 12 9 91 100 100 98 100 100 100 100 100 100 100 100 100 100 100 100 100 100 100 100 100 100 100 100 100 100 100 100 100 100 94 66
0 62 0 0 1 1 5 5 5 14 48 72 100 100 78 100 100 100 100 100 100 100 100 100 100 100 100 100 100 100 100 100 100 91 90 98 100 100 100 100 100 5 5
1 99 14 99 0 0 3 5 5 28 96 73 100 96 95 100 100 100 100 100 100 100 100 100 100 98 99 99 97 100 100 100 77 82 100 100 100 100 100 92 5 5 0
0 6 40 92 0 0 0 5 5 21 100 96 100 100 100 100 100 100 100 100 98 100 100 100 100 100 100 94 100 93 79 64 74 79 64 100 100 67 12 1 1 0 0
0 5 99 6 0 0 0 3 58 78 100 98 100 80 100 100 100 100 100 100 100 100 100 100 100 73 73 67 87 60 34 17 12 9 35 50 21 9 5 5 1 2 0
0 0 0 0 0 0 4 5 5 36 100 100 100 99 68 100 100 100 100 100 100 68 100 100 100 100 76 49 44 49 42 11 6 32 50 7 5 5 6 5 5 0 5
0 12 0 0 0 1 5 4 1 27 61 100 100 100 98 100 100 100 100 100 100 100 88 94 63 94 81 76 93 100 98 27 36 22 18 6 5 34 24 4 0 0 3
0 0 0 0 0 0 0 2 2 5 36 61 81 100 100 100 100 100 100 87 100 100 100 100 96 100 100 100 66 34 25 7 5 5 2 4 4 3 2 0 0 8 42
0 0 0 0 0 0 0 0 0 4 5 73 38 55 88 99 100 100 78 100 75 100 63 22 34 58 80 94 74 67 58 24 15 3 0 1 0 0 0 1 0 3 5
5 5 6 0 0 0 0 0 0 0 0 0 3 16 86 24 95 90 7 7 5 5 6 6 6 25 87 100 81 35 88 84 22 4 0 0 0 0 0 0 0 0 0
22 5 5 5 0 0 0 0 0 0 0 0 0 10 100 0 0 4 18 5 5 4 3 3 29 39 7 2 2 0 0 0 0 0 0 0 0 0 0 0 0 2 2
100 99 37 5 4 5 3 1 0 0 0 0 0 0 0 0 0 0 0 0 0 0 0 0 0 0 0 0 0 0 0 0 0 0 2 5 5 0 2 0 0 3 5
82 100 100 100 96 64 7 5 5 29 9 5 2 0 0 0 0 0 0 0 0 0 0 0 0 0 0 0 0 0 0 0 0 0 0 0 0 5 0 4 5 5 5
100 100 100 100 100 100 100 95 61 58 56 21 5 5 4 1 1 0 0 0 0 4 0 0 0 0 0 4 0 0 0 0 4 2 0 1 5 5 2 5 5 5 5
100 100 100 100 100 100 100 100 100 100 100 100 100 90 48 16 11 16 10 5 5 5 5 4 5 5 5 5 4 4 4 1 28 46 8 5 4 3 5 5 5 5 5

GFSGL_prec_cloud_030.txt.gz
Cloud_Cover
37 42 40 36 7 4 11 4 0 0 1 0 0 0 0 0 0 8 13 12 99 90 99 100 100 100 34 53 49 71 92 55 100 96 87 100 97 64 62 94 95 98 100
33 36 33 25 16 4 0 0 0 0 0 0 0 0 0 6 0 2 15 78 98 78 100 100 100 95 39 7 100 99 77 100 97 99 97 100 100 97 88 100 100 100 100
90 28 31 21 5 1 1 0 0 0 0 0 0 1 1 18 12 30 83 40 100 91 100 99 100 100 64 34 85 79 91 78 96 92 100 100 100 100 100 100 100 100 100
4 15 14 6 12 11 0 0 0 0 0 0 1 7 11 11 15 30 80 99 97 95 69 61 94 55 51 86 79 29 87 97 100 100 100 100 100 100 100 100 100 100 100
2 4 0 0 0 0 5 12 20 0 0 25 17 7 7 22 7 86 100 100 77 100 100 94 12 76 79 97 72 46 84 98 100 100 100 100 100 100 100 100 100 100 100
1 1 4 15 46 46 44 71 15 9 47 47 92 30 6 7 100 100 100 99 99 70 43 66 58 13 100 100 100 51 100 100 93 99 100 100 100 100 100 100 100 100 100
4 23 50 36 64 85 63 64 1 9 6 2 0 1 5 93 100 100 100 100 100 100 100 100 58 94 100 100 100 100 100 100 76 56 100 100 100 100 100 100 100 100 100
22 80 49 100 100 100 18 15 15 3 3 5 30 4 28 86 100 100 100 100 100 100 100 98 90 85 96 100 100 100 100 79 92 98 96 100 100 100 99 100 100 100 100
94 100 96 36 35 96 15 18 0 4 0 77 5 7 40 79 100 100 100 100 100 100 100 100 100 100 92 100 100 100 100 100 100 94 66 100 100 100 70 47 100 100 100
100 95 38 62 6 11 27 34 5 5 3 83 42 8 70 100 100 100 100 100 100 100 100 100 98 100 100 35 99 100 100 100 100 100 100 100 100 100 96 99 100 100 100
52 30 83 99 83 97 29 13 5 18 77 5 8 71 98 100 100 100 100 100 100 100 100 100 78 100 100 96 100 99 100 100 100 100 100 100 100 100 100 100 100 100 100
0 32 42 51 100 7 5 5 6 20 36 53 58 100 100 100 100 100 100 100 100 100 100 100 100 100 100 100 78 95 100 100 100 100 100 100 100 100 100 100 100 100 100
14 1 0 3 2 5 19 65 31 35 29 40 100 100 58 100 100 100 100 100 100 94 100 100 100 100 100 100 100 100 100 100 100 100 100 100 100 100 100 100 100 100 99
13 1 0 0 0 5 32 60 51 26 98 100 98 100 36 100 100 100 100 98 100 100 100 100 100 100 100 95 100 100 100 100 100 89 86 84 98 98 100 100 100 100 10
31 0 17 1 0 4 21 61 81 71 78 100 100 88 52 100 100 100 100 100 99 100 100 100 100 100 100 100 100 100 100 99 99 78 84 68 54 66 95 69 73 7 6
33 0 6 0 0 80 13 5 97 100 100 100 99 76 21 99 100 100 100 93 99 100 100 100 100 100 100 88 100 100 100 99 47 87 38 88 52 100 64 18 8 6 5
18 0 0 27 13 2 98 76 7 67 100 100 100 100 83 100 100 100 100 100 100 100 100 100 100 100 82 40 93 80 81 100 99 55 50 37 41 18 6 5 5 5 0
0 0 1 8 57 24 30 100 96 100 100 98 100 100 100 100 100 100 100 100 98 99 97 100 83 83 100 98 100 100 94 100 66 43 37 20 7 5 9 100 9 4 0
4 0 4 4 46 35 2 92 100 100 39 100 57 86 100 100 100 100 100 100 92 99 83 81 100 100 100 84 90 100 90 45 10 5 5 5 4 13 4 15 34 2 0
1 20 1 1 1 1 0 0 32 30 36 98 100 66 68 98 92 98 98 100 95 99 92 100 98 68 47 67 89 81 85 68 33 17 5 4 0 0 0 0 0 0 0
2 2 8 0 0 0 2 0 1 5 5 5 40 11 92 100 21 12 23 32 96 100 100 100 67 44 22 9 5 14 11 96 59 100 94 15 18 1 1 0 0 0 0
5 5 5 5 0 0 5 8 1 0 0 0 3 13 81 54 75 100 53 7 13 31 54 15 5 5 29 30 12 46 76 5 5 2 2 1 14 5 1 7 3 0 0
100 25 6 5 5 24 1 0 0 7 10 0 0 0 0 0 3 4 36 68 29 10 5 0 2 5 4 4 0 0 0 0 0 0 3 5 11 13 8 13 5 0 0
100 100 89 5 5 4 0 0 0 46 17 37 10 6 0 0 0 24 34 74 77 51 34 29 20 18 16 3 1 0 0 0 0 0 0 0 0 5 0 0 0 0 0
100 100 100 100 100 94 23 11 7 6 7 16 62 68 74 54 24 22 13 10 17 17 16 8 8 12 18 18 26 41 42 3 23 40 0 2 4 5 4 2 5 5 10
100 100 100 100 100 100 100 100 100 100 100 97 87 72 52 60 44 56 52 29 25 53 87 90 92 92 96 84 56 80 85 84 45 48 11 4 2 1 0 0 0 5 5

GFSGL_prec_cloud_033.txt.gz
Cloud_Cover
98 100 100 100 92 100 100 100 78 56 54 33 23 31 28 15 3 1 26 47 23 92 100 84 100 100 84 5 21 99 100 70 30 98 100 100 100 100 22 59 99 7 97
100 100 100 96 100 100 100 95 13 3 0 3 6 2 0 0 10 41 24 45 100 100 98 100 100 91 58 93 28 100 97 69 82 100 100 100 100 100 100 100 98 100 100
98 100 100 100 100 100 40 14 0 0 0 3 0 0 4 55 87 25 97 98 76 46 36 100 95 88 55 65 5 60 100 100 100 100 99 100 99 100 100 100 100 100 100
11 35 100 100 100 60 9 0 0 1 0 0 0 24 52 100 100 29 95 25 100 46 100 100 99 90 98 37 88 19 100 100 100 82 100 100 100 100 100 100 100 100 100
2 86 36 12 12 8 0 0 0 4 0 6 55 100 100 39 51 54 100 100 100 61 100 100 100 100 100 27 40 37 100 100 100 100 100 100 100 100 100 100 100 100 100
19 8 0 5 0 1 5 99 31 3 83 100 100 100 2 79 100 100 100 91 66 96 100 100 100 49 32 6 5 88 100 100 100 100 100 100 100 100 100 100 100 100 100
0 5 18 41 100 100 100 100 18 88 100 100 100 99 23 28 100 100 100 96 100 92 54 96 20 7 5 95 55 5 65 75 55 100 100 100 100 100 100 100 100 100 100
25 60 52 100 91 100 100 92 91 100 14 3 52 11 65 40 100 100 100 99 96 70 44 50 36 63 100 60 78 79 100 100 92 60 98 78 100 100 100 100 100 100 100
3 100 49 86 98 12 96 100 93 26 6 12 90 83 86 60 100 100 100 94 100 98 92 100 100 100 100 90 50 79 100 100 100 100 88 98 100 100 100 100 100 100 100
96 12 55 95 100 86 97 100 100 2 10 88 20 67 66 79 100 100 100 100 100 100 100 95 98 64 100 100 100 100 100 100 100 100 100 92 100 100 100 100 84 100 100
8 93 66 100 88 100 100 72 91 29 68 100 25 90 100 100 100 100 100 100 96 90 100 100 89 100 100 100 100 100 100 100 100 100 100 100 100 100 100 100 100 100 100
98 24 90 100 78 100 44 48 100 99 8 15 62 100 96 100 100 100 100 100 100 99 95 93 81 99 67 100 100 88 97 100 100 100 100 100 100 100 100 100 100 86 100
87 95 100 100 98 96 24 32 54 26 79 57 78 100 100 100 100 100 100 94 100 99 97 65 100 100 100 100 94 77 80 100 100 100 100 100 100 100 100 100 100 100 100
100 92 100 100 100 100 25 87 11 10 10 51 99 100 100 100 100 99 96 100 96 42 93 100 100 100 100 100 100 99 100 100 100 100 100 99 100 100 100 100 100 100 100
100 96 100 44 99 46 49 100 91 100 91 100 100 100 100 94 97 87 98 100 87 96 99 100 100 100 100 100 100 100 100 100 98 95 100 100 92 100 84 100 100 100 100
70 98 31 90 74 70 5 47 100 94 100 100 100 83 86 91 100 96 68 100 100 100 92 93 100 100 100 100 100 100 100 100 81 79 100 100 99 87 91 100 76 23 5
100 93 42 100 100 0 88 38 100 51 100 100 100 100 77 100 100 100 100 100 100 100 100 100 100 100 100 100 100 100 82 100 100 100 98 50 59 100 63 87 8 5 3
100 6 92 99 100 24 97 21 96 100 37 100 88 68 100 100 100 100 100 75 100 100 100 100 100 100 100 99 83 100 80 56 79 89 86 92 82 9 8 4 4 22 4
22 16 100 100 76 82 57 96 100 98 100 100 100 96 100 100 100 100 96 76 91 100 90 100 99 99 99 99 64 87 96 100 100 100 100 97 33 2 2 3 2 91 9
54 25 100 94 13 45 98 100 28 100 100 100 100 100 100 90 84 100 100 100 99 92 98 66 56 82 100 100 92 100 100 100 42 78 36 5 4 4 0 0 0 0 2
50 4 36 100 20 100 30 84 99 100 100 100 100 91 99 100 69 68 94 100 100 100 31 41 98 98 49 100 96 33 88 100 100 9 30 78 100 7 0 0 0 0 0
82 2 0 94 62 87 90 53 2 8 32 97 57 92 87 100 80 85 97 100 100 100 38 51 100 100 100 100 84 100 100 98 97 100 70 34 44 25 11 8 4 1 0
100 38 5 70 99 48 67 100 79 68 27 33 0 3 18 40 100 88 97 57 89 96 100 100 98 98 53 7 43 62 92 99 76 19 11 58 38 32 38 26 10 2 2
100 100 64 41 16 14 22 98 100 100 100 100 96 17 0 0 46 100 100 100 92 97 99 100 98 94 86 72 86 75 67 38 34 4 4 2 1 6 0 0 0 2 20
100 100 100 100 4 4 5 5 5 0 1 89 98 65 17 0 55 14 0 81 96 100 100 100 88 94 100 93 69 47 95 98 56 68 13 34 59 35 0 1 15 26 12
100 100 100 100 100 92 84 75 82 73 66 53 50 47 36 42 49 30 25 14 24 27 18 34 42 48 57 86 71 61 79 50 46 97 12 0 0 0 0 1 0 2 4

GFSGL_prec_cloud_036.txt.gz
Cloud_Cover
62 26 13 16 16 0 0 68 19 18 29 2 17 6 10 18 0 0 0 0 0 3 93 99 100 46 36 35 5 89 8 97 95 93 100 100 100 100 100 100 17 43 100
100 100 95 100 96 56 74 100 100 26 5 2 4 4 0 0 0 0 0 41 32 92 100 76 100 100 57 81 18 12 99 99 95 100 100 100 100 100 100 66 27 95 100
100 100 100 100 100 100 100 100 44 1 48 26 0 0 0 7 39 25 1 9 100 100 89 87 79 52 40 50 71 75 98 64 98 97 100 100 100 100 100 97 100 100 100
100 100 100 100 100 100 92 1 28 0 0 0 0 7 68 100 100 100 56 80 85 100 94 93 96 86 68 64 82 100 97 80 100 97 95 100 100 100 100 100 100 100 100
93 100 100 100 100 90 8 1 0 0 0 0 67 100 100 97 62 68 17 100 88 73 100 100 100 100 72 10 84 97 100 100 95 99 100 100 100 100 100 100 100 100 100
35 47 98 95 28 3 1 86 0 5 82 100 100 48 100 2 100 100 100 98 29 8 36 100 100 73 87 27 34 78 100 100 97 100 100 100 100 100 100 100 100 100 100
50 31 44 27 60 100 100 100 38 23 100 100 50 60 60 6 100 100 100 94 46 88 100 100 100 90 67 5 50 5 100 100 100 100 100 100 100 100 100 100 100 64 99
1 63 60 33 95 100 75 100 40 78 12 6 51 75 3 46 100 100 100 99 24 62 33 81 69 5 5 8 32 34 100 100 100 97 92 99 96 100 99 100 100 100 100
35 54 46 97 66 100 86 91 5 12 2 53 14 63 54 90 100 100 73 100 54 100 96 16 7 15 100 90 100 99 100 100 100 100 99 100 87 100 92 100 100 100 100
96 6 7 4 0 88 84 96 0 0 4 37 100 17 98 65 100 100 85 100 97 100 98 100 87 99 100 100 73 100 100 100 100 100 100 100 100 100 100 100 100 100 100
16 100 70 86 75 100 100 100 74 5 1 52 15 32 24 76 100 100 97 95 99 100 94 98 43 100 100 88 87 72 87 100 100 100 100 100 100 100 100 100 100 91 48
100 83 23 79 100 99 87 25 3 9 5 40 40 100 99 100 100 100 100 99 100 98 100 89 76 100 100 99 100 100 100 100 100 100 100 100 100 100 100 98 98 74 100
27 8 93 99 87 75 5 15 83 18 56 52 61 100 100 100 100 100 100 100 100 98 80 100 100 98 100 100 100 100 100 100 100 100 100 100 99 100 100 99 100 100 100
35 76 100 100 32 62 12 100 40 4 12 15 49 100 100 100 100 100 100 100 100 79 97 100 100 100 100 100 100 100 100 100 100 100 100 98 99 95 77 97 100 100 100
49 98 94 59 99 68 100 100 98 87 86 100 96 100 100 100 100 100 100 98 76 97 82 100 100 100 100 100 100 100 100 100 100 93 70 65 65 79 100 100 100 100 100
34 12 1 73 52 3 100 100 100 100 100 100 91 100 100 100 97 100 100 89 93 100 98 98 95 100 100 100 84 100 100 100 100 56 100 96 79 86 72 32 74 50 41
98 12 100 99 82 57 9 5 100 62 100 100 99 94 100 100 100 100 98 100 100 100 100 87 100 100 96 100 82 60 75 79 100 100 100 99 47 99 96 100 100 100 100
38 96 100 5 17 100 74 26 100 78 42 98 100 96 100 100 100 100 100 96 96 100 100 100 100 100 100 100 100 100 93 18 36 62 65 21 22 50 26 6 5 5 5
0 48 77 27 62 94 100 56 90 100 97 30 100 100 100 100 100 100 96 13 42 100 100 100 100 100 100 100 100 75 94 44 72 69 100 100 71 12 88 55 5 5 5
99 100 97 41 40 100 72 86 85 89 100 99 81 100 100 100 100 99 99 100 88 78 81 97 100 100 100 61 91 100 100 97 100 100 99 90 100 100 88 99 18 0 0
35 99 68 17 91 5 94 9 33 63 100 100 99 100 60 72 90 72 100 18 59 94 63 70 66 24 44 31 55 44 74 39 100 69 99 94 5 11 90 93 2 0 0
100 6 100 25 100 100 25 0 13 8 85 99 98 18 99 6 5 13 77 66 99 74 72 100 79 100 93 66 100 100 100 99 100 100 100 68 21 68 48 39 21 8 0
100 100 45 100 43 19 99 92 18 5 5 100 98 28 86 95 100 98 100 100 72 100 100 100 100 100 87 89 100 100 100 100 100 100 95 100 100 100 100 96 99 100 97
100 100 58 100 68 62 86 59 30 56 16 16 61 18 100 100 100 100 100 62 100 100 100 8 5 78 100 100 98 6 13 62 100 100 100 90 73 13 54 96 93 85 72
100 100 100 100 72 0 28 91 72 87 98 33 0 0 0 0 91 100 100 86 82 100 16 10 55 94 22 30 17 4 89 65 99 89 72 100 100 100 100 100 66 50 92
100 98 100 100 100 100 50 56 72 33 37 27 47 41 55 68 68 26 0 0 55 94 100 100 0 74 100 72 99 100 100 100 96 100 77 30 1 2 0 3 1 2 4

GFSGL_prec_cloud_042.txt.gz
Cloud_Cover
0 0 0 1 16 10 7 7 100 100 100 87 30 0 92 98 56 6 16 98 59 10 0 0 0 5 56 17 100 17 5 5 100 100 100 100 100 100 99 100 100 99 100
0 0 0 20 10 9 11 15 48 62 100 4 1 46 30 0 1 72 93 17 0 0 0 1 5 22 62 100 95 6 5 99 100 100 100 100 100 100 100 100 100 100 100
0 0 26 41 16 0 28 17 52 4 0 12 43 12 19 36 100 100 38 0 0 0 0 5 5 32 53 100 84 6 60 100 100 100 100 100 100 100 100 100 100 100 100
0 4 38 47 9 20 94 94 1 43 64 90 39 64 100 100 98 3 0 0 0 2 30 44 54 100 64 100 98 35 5 100 100 100 100 100 100 100 100 100 100 100 100
97 10 2 4 100 100 99 99 40 82 84 100 100 100 24 0 1 0 0 0 8 5 27 53 88 99 89 79 54 10 13 76 100 100 100 100 100 100 100 100 100 100 100
93 35 76 100 100 100 100 100 100 100 89 98 0 0 0 8 100 100 50 1 4 5 8 33 26 89 95 82 92 62 25 78 99 100 100 100 100 100 99 100 100 100 100
100 100 100 100 100 100 100 100 69 11 0 0 6 98 100 94 100 100 100 0 6 6 19 54 89 100 100 86 100 100 100 92 98 100 100 100 100 100 100 100 86 97 100
100 100 100 100 100 100 100 10 0 0 0 7 100 88 75 100 100 100 71 33 62 30 42 78 100 100 76 64 92 100 100 100 100 67 81 66 20 99 94 64 76 100 100
100 100 100 100 92 49 1 0 0 54 100 100 35 27 100 100 100 100 30 35 74 57 50 95 92 100 100 100 100 97 90 100 100 99 52 100 100 98 100 84 100 100 100
100 19 51 100 18 68 80 86 100 90 26 15 29 34 100 100 100 100 97 20 66 84 84 69 88 80 100 100 51 18 100 96 98 100 100 100 100 100 100 100 63 83 99
99 12 31 96 12 72 86 100 54 61 55 36 47 52 100 88 100 100 74 79 95 95 39 53 100 98 97 83 98 8 92 96 100 100 100 100 100 100 100 100 100 89 100
47 78 14 100 100 100 100 74 13 28 41 96 100 100 100 100 100 100 99 98 96 76 100 100 100 100 100 100 100 100 100 100 100 100 100 100 100 100 100 100 100 100 100
72 22 35 76 100 100 82 0 31 18 51 100 100 100 100 100 100 100 100 100 92 100 100 100 100 100 100 100 100 100 100 100 100 100 100 100 100 100 100 100 100 100 100
100 82 10 100 100 56 8 3 5 24 42 100 100 100 100 100 100 100 100 100 100 100 100 100 100 100 100 100 100 100 100 100 100 100 100 100 100 100 100 100 100 100 100
74 8 14 3 44 100 100 100 15 50 23 43 100 100 96 100 84 100 100 100 100 100 100 100 100 100 100 100 100 100 100 100 100 100 100 100 100 100 99 100 99 100 100
0 100 95 14 97 97 100 100 100 92 100 100 95 100 99 94 100 100 100 100 100 100 100 100 100 100 100 100 100 97 100 100 100 100 100 100 100 41 70 99 97 100 100
0 29 15 37 49 36 84 86 100 100 100 100 100 100 100 100 100 100 100 100 100 100 100 100 100 97 87 100 100 93 100 88 100 96 100 99 97 100 100 100 96 87 66
2 7 2 5 7 11 42 35 54 61 100 100 100 100 100 100 98 100 100 99 100 100 100 100 100 100 89 98 100 100 100 96 99 100 95 100 100 100 100 84 19 5 6
2 5 2 3 0 2 4 22 53 98 100 100 100 100 100 100 100 100 100 88 86 81 48 56 60 77 98 100 100 100 83 69 54 66 92 100 100 97 54 6 18 56 70
5 6 8 5 2 0 0 15 96 100 100 100 100 100 100 89 94 100 99 100 100 100 100 98 100 100 100 100 100 97 60 90 87 82 89 100 100 58 84 76 74 59 28
5 5 11 18 5 5 5 11 89 100 100 100 100 100 100 100 100 100 100 100 100 100 100 100 100 100 73 94 10 100 100 100 99 100 100 100 100 100 100 96 59 57 71
97 52 5 9 43 6 4 4 56 100 100 100 100 100 100 95 100 93 76 96 100 100 100 100 100 100 100 100 100 100 100 99 99 100 100 100 100 100 100 100 100 100 99
100 89 11 63 85 75 6 3 7 30 100 100 100 100 54 85 100 78 90 63 88 100 100 100 100 100 97 94 88 78 99 100 100 100 100 100 100 100 100 97 100 100 100
100 100 100 39 11 23 21 52 30 24 42 100 100 100 98 61 64 98 100 66 5 30 5 13 100 64 79 69 99 98 85 82 86 84 100 100 66 100 100 100 100 100 99
100 100 56 57 12 1 5 5 39 74 100 100 100 97 86 54 100 100 99 93 94 42 13 36 18 94 75 10 67 100 100 39 24 71 49 84 53 38 73 71 6 20 96
88 89 64 78 65 85 92 83 52 90 100 79 50 80 39 19 59 50 65 76 56 44 100 98 38 33 39 53 4 12 71 59 52 45 93 47 54 88 65 87 60 69 100

GFSGL_prec_cloud_045.txt.gz
Cloud_Cover
0 0 0 0 0 3 56 34 14 13 23 4 0 0 3 4 51 99 100 100 92 100 44 26 0 0 1 5 5 20 20 5 5 97 100 100 100 100 100 100 100 100 100
0 0 0 0 0 9 21 79 100 47 5 0 29 99 58 1 87 100 62 42 91 39 3 0 0 0 5 70 32 67 5 5 66 100 100 100 100 100 100 100 100 100 100
0 0 6 20 10 21 37 47 24 20 14 98 100 83 6 67 2 4 36 100 57 6 0 0 0 2 5 28 74 32 5 46 92 100 100 100 100 100 100 100 100 100 99
0 0 2 20 8 26 50 38 19 62 87 30 0 1 30 23 37 100 96 9 0 0 0 0 0 4 45 87 32 5 18 68 100 100 100 100 100 100 100 100 100 100 100
9 20 50 51 30 52 41 22 20 0 15 0 47 76 93 98 100 80 2 0 0 0 0 5 44 18 6 100 58 6 46 78 100 100 100 100 100 100 100 100 100 100 100
100 100 98 77 60 70 65 66 6 5 75 84 100 100 100 91 100 46 9 0 0 0 4 6 16 24 100 76 45 8 33 100 100 100 100 100 100 100 100 100 100 100 100
100 100 94 56 80 99 100 25 20 93 2 90 34 12 4 94 100 100 97 0 0 5 32 39 53 6 46 88 100 63 99 99 100 100 100 100 100 100 100 100 100 95 100
100 100 77 91 81 83 100 100 100 100 71 0 2 0 56 100 100 100 95 3 42 80 25 5 10 59 62 99 100 82 100 100 100 100 100 100 100 98 56 92 31 89 100
100 100 22 78 100 100 100 100 100 15 5 2 4 96 100 100 100 100 44 9 31 88 6 5 67 100 100 100 49 100 83 100 100 100 100 100 100 99 95 65 50 95 100
100 100 100 100 100 100 100 99 13 1 12 100 92 100 100 100 100 100 36 27 100 100 98 74 92 100 100 100 100 100 100 100 100 98 100 100 100 100 100 14 3 80 38
100 100 100 100 100 45 12 0 16 84 61 80 100 100 94 100 100 100 89 49 100 98 84 75 96 100 100 100 100 41 77 87 96 96 100 100 100 100 100 100 100 100 95
100 100 89 48 1 0 28 92 100 43 97 100 100 100 100 100 100 100 100 100 83 100 70 95 93 100 100 100 100 100 100 83 98 100 100 100 100 100 100 100 100 100 100
100 23 27 17 5 64 100 100 81 91 100 100 100 100 100 100 100 100 100 100 100 100 91 95 100 100 100 100 100 100 100 100 100 100 100 100 100 100 100 100 100 100 100
15 96 100 99 93 100 100 11 49 97 100 100 100 100 100 100 100 66 92 100 100 100 100 100 100 100 100 100 100 100 100 100 100 100 100 100 100 100 100 100 100 100 100
5 5 26 96 100 100 100 100 42 60 81 100 100 100 100 100 92 100 100 100 100 100 100 100 100 100 100 100 100 100 100 100 100 100 100 100 100 100 100 100 100 100 100
29 6 30 34 100 100 100 100 100 100 100 100 100 99 95 96 100 100 100 100 100 100 100 100 100 100 100 100 100 100 100 100 100 100 100 100 100 100 100 100 100 85 96
4 0 40 25 79 100 100 98 100 100 100 100 100 100 90 100 100 100 100 100 100 100 100 100 100 100 99 100 100 100 100 100 100 100 100 100 100 100 100 100 61 100 100
4 44 7 29 24 34 28 72 100 100 100 100 100 100 100 100 100 100 100 99 100 100 100 100 100 98 100 100 100 88 100 100 100 100 100 100 97 100 100 100 99 66 96
0 4 44 32 32 65 61 100 100 100 100 100 100 100 100 100 100 100 100 100 100 100 100 100 78 74 92 100 100 100 100 93 98 100 100 100 100 100 99 98 90 83 66
8 81 46 18 39 64 96 100 100 100 100 100 100 100 100 100 100 100 100 100 100 100 100 99 91 84 63 100 100 100 100 100 100 100 100 100 100 100 76 6 7 63 95
30 57 78 20 36 64 100 100 100 100 100 100 100 100 100 57 100 100 100 100 100 100 100 100 96 100 100 100 100 100 100 100 100 100 100 100 49 79 60 95 100 100 93
5 19 5 13 22 54 100 100 100 100 100 100 100 100 100 100 100 100 100 100 100 100 100 100 93 94 100 100 100 100 97 99 87 84 31 55 72 100 100 89 100 100 100
20 5 12 27 33 72 100 100 100 100 100 100 98 95 100 100 100 100 100 100 100 96 78 78 98 98 98 34 41 77 67 78 68 82 94 100 100 100 98 89 85 90 100
5 5 22 42 44 61 100 100 100 100 100 100 100 100 100 100 100 100 100 82 61 38 89 99 99 100 100 100 100 100 82 100 99 99 100 100 100 100 100 99 99 100 99
11 19 55 60 72 99 100 100 94 99 100 100 100 100 100 100 100 100 100 58 83 100 85 75 96 57 67 32 47 37 51 59 24 31 44 50 94 95 86 94 92 69 55
88 67 79 89 95 100 100 100 100 100 100 100 100 100 100 100 100 100 100 100 96 62 71 100 100 100 100 100 100 100 100 100 100 100 100 100 100 100 100 96 92 100 81

GFSGL_prec_cloud_048.txt.gz
Cloud_Cover
0 0 0 0 0 0 0 0 0 1 5 20 30 84 95 98 22 71 2 60 100 26 93 71 7 0 0 1 0 5 31 33 5 51 68 100 100 100 100 95 97 97 97
0 0 0 0 0 0 0 0 0 3 15 17 66 100 100 100 100 19 2 100 100 100 96 5 0 0 0 0 2 22 60 6 5 54 100 100 100 100 100 100 100 100 100
0 0 0 0 0 0 2 19 21 32 35 22 0 38 96 100 79 96 100 26 4 100 97 0 0 0 0 3 5 5 71 5 5 100 88 100 100 100 100 100 100 100 100
0 0 0 0 0 4 28 58 52 36 44 23 0 0 92 71 34 14 13 28 6 63 0 0 0 0 0 5 5 39 25 14 36 100 97 100 100 100 100 100 100 100 100
0 0 26 36 25 46 94 100 79 62 46 8 26 98 8 0 0 10 92 17 1 0 0 0 0 0 0 5 5 87 10 89 100 100 100 100 100 100 100 100 100 100 100
36 43 84 80 94 100 100 99 58 41 86 91 10 87 46 89 100 48 0 0 0 0 0 0 0 16 44 17 88 100 80 98 100 100 100 100 100 100 100 100 99 100 100
68 100 100 100 100 100 100 54 23 19 85 88 75 98 68 74 100 100 98 0 0 0 0 5 18 5 35 66 94 94 98 95 100 92 100 100 100 100 77 75 91 86 100
100 100 100 100 100 100 100 35 7 74 78 100 100 100 100 99 100 100 100 0 0 3 5 5 5 52 66 99 98 40 28 34 76 100 100 46 100 100 97 79 52 55 100
100 100 100 100 100 100 100 94 60 100 99 10 16 41 97 100 100 100 57 1 56 47 62 84 11 55 100 100 100 100 82 100 100 95 100 100 100 91 57 90 67 100 100
100 100 100 100 100 100 100 100 100 99 100 80 100 100 100 100 100 100 38 99 100 100 100 99 92 74 100 100 100 100 100 100 100 100 99 100 100 100 100 100 43 92 100
100 100 100 100 100 100 100 100 100 86 99 100 100 100 100 100 100 100 99 12 95 100 98 100 100 100 100 100 100 100 100 100 100 95 100 100 100 100 100 73 27 3 36
100 100 100 100 100 100 100 100 99 90 100 100 100 99 99 100 100 100 100 71 94 68 100 100 100 100 100 100 81 100 100 100 100 100 100 100 100 100 100 100 100 87 100
87 100 100 100 100 100 51 59 95 99 100 100 100 100 100 100 100 100 100 100 94 100 95 99 100 100 100 100 100 100 99 100 100 100 100 100 100 100 100 100 100 100 100
100 100 100 100 78 8 12 72 100 100 100 100 100 100 100 100 100 98 96 97 95 100 100 100 97 100 100 100 100 100 100 100 100 100 100 100 100 100 100 100 100 100 100
100 100 100 41 84 100 99 100 100 84 34 97 99 80 100 100 92 63 89 97 99 100 100 100 100 100 100 100 100 100 100 100 93 100 100 100 100 100 100 93 99 100 100
100 100 98 42 99 100 100 100 100 100 100 88 96 47 98 100 100 100 100 100 100 100 100 100 100 100 100 100 100 100 100 100 100 100 100 100 100 100 100 100 100 100 100
100 100 99 100 100 100 100 100 100 100 100 100 100 100 97 100 100 100 100 100 100 100 100 100 100 100 100 100 100 100 100 100 100 100 100 100 99 100 100 100 100 100 82
83 39 4 39 63 100 100 100 100 100 100 100 100 100 100 100 100 100 100 100 100 100 100 100 82 98 100 100 100 98 100 100 91 96 43 96 100 98 100 100 97 100 100
5 7 20 46 44 64 99 100 100 100 100 100 100 100 100 100 100 100 100 100 100 96 98 100 100 89 100 100 100 99 100 99 100 100 100 100 100 100 100 100 100 98 100
99 98 100 100 100 100 100 100 100 100 100 100 100 100 100 99 100 96 100 100 100 99 100 100 79 85 94 100 100 100 100 67 84 96 100 100 100 100 100 86 75 63 65
100 68 88 100 100 100 100 100 100 100 100 100 100 100 100 100 100 100 100 100 100 100 100 100 100 100 100 100 100 92 100 100 100 100 98 100 100 100 95 57 26 60 43
49 64 93 100 100 100 100 100 100 100 100 99 100 100 100 100 100 100 100 100 100 100 100 100 98 98 98 62 89 100 92 95 100 100 100 100 96 50 84 100 87 98 59
47 72 100 100 100 100 100 100 100 100 100 100 100 100 100 72 100 92 100 100 94 99 73 97 80 84 88 99 100 100 100 100 97 97 79 51 61 74 62 68 86 100 93
19 30 88 100 100 100 100 100 100 100 100 100 100 100 100 100 92 100 100 98 82 55 58 92 94 92 97 100 100 100 100 89 91 96 100 57 62 83 100 100 100 100 100
48 66 99 100 100 100 100 100 100 100 100 100 100 100 100 100 100 100 100 100 100 100 100 100 94 99 99 72 74 87 100 99 99 100 98 100 100 100 84 100 100 100 100
100 100 100 100 100 100 100 100 100 100 100 100 100 100 100 100 100 100 100 100 100 100 100 100 100 100 100 100 100 100 100 100 100 100 100 100 100 100 100 100 100 100 100